This demonstration page uses our WeatherBlox Daily Observations layout. Learn more.

Left ArrowRight Arrow

Hourly Observations for December 26, 2020

Temp ( °F °C ) Dew Point ( °F °C ) Humidity (%) Winds ( mph kmh ) Pressure ( in mb ) Visibility ( mi km ) Precip ( " mm )
12:15 am 00:15 Mostly Cloudy 14 -10 10 -12 85 85 SSW 10 17 30.09 1019 10 16.0934 N/A
12:35 am 00:35 Cloudy 14 -10 10 -12 85 85 SSW 13 20 30.08 1019 10 16.0934 N/A
12:55 am 00:55 Cloudy 16 -9 10 -12 79 79 SW 14 22 30.08 1019 10 16.0934 N/A
1:15 am 01:15 Cloudy 16 -9 10 -12 79 79 SW 12 19 30.08 1019 10 16.0934 N/A
1:35 am 01:35 Cloudy 16 -9 10 -12 79 79 SSW 12 19 30.07 1018 10 16.0934 N/A
1:55 am 01:55 Cloudy 16 -9 10 -12 79 79 SW 14 22 30.07 1018 10 16.0934 N/A
2:15 am 02:15 Cloudy 18 -8 12 -11 79 79 SSW 13 20 30.06 1018 10 16.0934 N/A
2:35 am 02:35 Cloudy 18 -8 12 -11 79 79 SSW 10 17 30.06 1018 10 16.0934 N/A
2:55 am 02:55 Cloudy 18 -8 12 -11 79 79 SSW 12 19 30.06 1018 10 16.0934 N/A
3:15 am 03:15 Cloudy 18 -8 12 -11 79 79 SW 13 20 30.06 1018 10 16.0934 N/A
3:35 am 03:35 Cloudy 18 -8 12 -11 79 79 SW 10 17 30.06 1018 10 16.0934 N/A
3:55 am 03:55 Cloudy 18 -8 12 -11 79 79 SSW 10 17 30.05 1018 10 16.0934 N/A
4:15 am 04:15 Cloudy 18 -8 12 -11 79 79 SSW 12 19 30.04 1017 10 16.0934 N/A
4:35 am 04:35 Cloudy 18 -8 12 -11 79 79 SSW 10 17 30.04 1017 10 16.0934 N/A
4:55 am 04:55 Partly Cloudy 16 -9 10 -12 79 79 SSW 10 17 30.04 1017 10 16.0934 N/A
5:15 am 05:15 Clear 16 -9 10 -12 79 79 SSW 9 15 30.05 1018 10 16.0934 N/A
5:35 am 05:35 Clear 16 -9 10 -12 79 79 S 12 19 30.05 1018 10 16.0934 N/A
5:55 am 05:55 Clear 14 -10 10 -12 85 85 SSW 8 13 30.05 1018 10 16.0934 N/A
6:15 am 06:15 Clear 14 -10 12 -11 92 92 S 8 13 30.05 1018 10 16.0934 N/A
6:35 am 06:35 Clear 14 -10 12 -11 92 92 SSW 8 13 30.06 1018 10 16.0934 N/A
6:55 am 06:55 Clear 14 -10 12 -11 92 92 S 8 13 30.06 1018 10 16.0934 N/A
7:15 am 07:15 Clear 12 -11 12 -11 100 100 S 8 13 30.07 1018 10 16.0934 N/A
7:35 am 07:35 Clear 12 -11 12 -11 100 100 S 6 9 30.07 1018 10 16.0934 N/A
7:55 am 07:55 Clear 12 -11 12 -11 100 100 S 7 11 30.07 1018 10 16.0934 N/A
8:15 am 08:15 Sunny 14 -10 12 -11 92 92 S 7 11 30.05 1018 10 16.0934 N/A
8:35 am 08:35 Sunny 14 -10 12 -11 92 92 S 7 11 30.06 1018 10 16.0934 N/A
8:55 am 08:55 Sunny 16 -9 12 -11 86 86 S 7 11 30.06 1018 10 16.0934 N/A
9:15 am 09:15 Sunny 18 -8 14 -10 86 86 SSW 7 11 30.06 1018 10 16.0934 N/A
9:35 am 09:35 Sunny 19 -7 16 -9 86 86 SW 8 13 30.08 1019 10 16.0934 N/A
9:55 am 09:55 Sunny 21 -6 14 -10 74 74 SW 9 15 30.08 1019 10 16.0934 N/A
10:15 am 10:15 Sunny 23 -5 16 -9 74 74 Calm 30.08 1019 10 16.0934 N/A
10:35 am 10:35 Sunny 25 -4 16 -9 69 69 SW 12 19 30.08 1019 10 16.0934 N/A
10:55 am 10:55 Sunny 25 -4 18 -8 74 74 SW 10 17 30.08 1019 10 16.0934 N/A
11:15 am 11:15 Sunny 27 -3 18 -8 69 69 SW 10 17 30.07 1018 10 16.0934 N/A
11:35 am 11:35 Sunny 28 -2 18 -8 64 64 WSW 12 19 30.06 1018 10 16.0934 N/A
11:55 am 11:55 Sunny 30 -1 19 -7 64 64 WSW 8 13 30.05 1018 10 16.0934 N/A
12:15 pm 12:15 Sunny 30 -1 19 -7 64 64 SW 12 19 30.04 1017 10 16.0934 N/A
12:35 pm 12:35 Sunny 30 -1 19 -7 64 64 WSW 12 19 30.04 1017 10 16.0934 N/A
12:55 pm 12:55 Sunny 32 0 21 -6 64 64 SW 8 13 30.04 1017 10 16.0934 N/A
1:15 pm 13:15 Sunny 32 0 21 -6 64 64 Calm 30.04 1017 10 16.0934 N/A
1:35 pm 13:35 Sunny 34 1 23 -5 65 65 WSW 9 15 30.02 1017 10 16.0934 N/A
1:55 pm 13:55 Sunny 34 1 21 -6 60 60 WSW 7 11 30.03 1017 10 16.0934 N/A
2:15 pm 14:15 Sunny 36 2 23 -5 60 60 WSW 6 9 30.03 1017 10 16.0934 N/A
2:35 pm 14:35 Sunny 36 2 23 -5 60 60 WSW 8 13 30.02 1017 10 16.0934 N/A
2:55 pm 14:55 Sunny 36 2 25 -4 65 65 SW 7 11 30.02 1017 10 16.0934 N/A
3:15 pm 15:15 Sunny 36 2 25 -4 65 65 WSW 8 13 30.01 1016 10 16.0934 N/A
3:35 pm 15:35 Sunny 36 2 25 -4 65 65 Calm 30.02 1017 10 16.0934 N/A
3:55 pm 15:55 Sunny 36 2 25 -4 65 65 Calm 30.02 1017 10 16.0934 N/A
4:15 pm 16:15 Sunny 36 2 25 -4 65 65 Calm 30.01 1016 10 16.0934 N/A
4:35 pm 16:35 Sunny 36 2 25 -4 65 65 Calm 30.02 1017 10 16.0934 N/A
4:55 pm 16:55 Sunny 34 1 25 -4 70 70 Calm 30.01 1016 10 16.0934 N/A
5:15 pm 17:15 Sunny 32 0 25 -4 75 75 Calm 30.04 1017 10 16.0934 N/A
5:35 pm 17:35 Clear 30 -1 25 -4 80 80 Calm 30.04 1017 10 16.0934 N/A
5:55 pm 17:55 Clear 28 -2 25 -4 86 86 Calm 30.06 1018 10 16.0934 N/A
6:15 pm 18:15 Clear 30 -1 25 -4 80 80 Calm 30.05 1018 10 16.0934 N/A
6:35 pm 18:35 Clear 27 -3 25 -4 93 93 Calm 30.06 1018 10 16.0934 N/A
6:55 pm 18:55 Clear 27 -3 25 -4 93 93 Calm 30.07 1018 10 16.0934 N/A
7:15 pm 19:15 Clear 25 -4 25 -4 100 100 Calm 30.06 1018 10 16.0934 N/A
7:35 pm 19:35 Clear 25 -4 25 -4 100 100 Calm 30.07 1018 10 16.0934 N/A
7:55 pm 19:55 Clear 25 -4 25 -4 100 100 Calm N/A 10 16.0934 N/A
8:15 pm 20:15 Clear 27 -3 25 -4 93 93 Calm 30.07 1018 10 16.0934 N/A
8:35 pm 20:35 Clear 25 -4 25 -4 100 100 Calm 30.08 1019 10 16.0934 N/A
8:55 pm 20:55 Clear 25 -4 23 -5 93 93 Calm 30.07 1018 10 16.0934 N/A
9:15 pm 21:15 Clear 23 -5 23 -5 100 100 Calm 30.07 1018 10 16.0934 N/A
9:35 pm 21:35 Clear 23 -5 23 -5 100 100 Calm 30.07 1018 10 16.0934 N/A
9:55 pm 21:55 Clear 23 -5 23 -5 100 100 Calm 30.07 1018 10 16.0934 N/A
10:15 pm 22:15 Clear 23 -5 23 -5 100 100 Calm 30.07 1018 10 16.0934 N/A
10:35 pm 22:35 Clear 21 -6 21 -6 100 100 Calm 30.09 1019 10 16.0934 N/A
10:55 pm 22:55 Clear 23 -5 23 -5 100 100 Calm 30.07 1018 10 16.0934 N/A
11:15 pm 23:15 Clear 21 -6 21 -6 100 100 Calm 30.07 1018 10 16.0934 N/A
11:35 pm 23:35 Clear 23 -5 23 -5 100 100 Calm 30.06 1018 10 16.0934 N/A
11:55 pm 23:55 Clear 23 -5 23 -5 100 100 Calm 30.06 1018 10 16.0934 N/A

Powered by AerisWeather